Location: Hains Lake
(37.8540°N, 99.8578°W)
Time: 03:14:06
(UTC+00:00)

Vanguard 1 - Pass Details

Date: 10 December 2021
Orbit: 652 x 3830 km, 34.2° (Epoch: 21 January)

Event Time Altitude Azimuth Distance (km) Brightness Sun altitude
Rises 06:46:03 0° 260° (W) 6,890 14.3 -74.8°
Enters shadow 06:46:18 - 260° (W) 6,841 14.3 -74.8°
Exits shadow 07:26:53 30° 97° (E) 5,057 13.5 -71.0°
Drops below altitude 10° 07:33:53 10° 95° (E) 6,167 14.2 -70.1°
Sets 07:37:55 0° 94° (E) 6,886 14.6 -69.5°
